This demonstration page uses our WeatherBlox Daily Observations layout. Learn more.

Left ArrowRight Arrow

39.01783, -85.05884

Hourly Observations for February 28, 2020

Temp ( °F °C ) Dew Point ( °F °C ) Humidity (%) Winds ( mph kmh ) Pressure ( in mb ) Visibility ( mi km ) Precip ( " mm )
12:22 am 00:22 Cloudy with Light Snow 33 0.6 25 -3.9 72 72 WSW 13 20 30.07 1018 2 3.21868 0.001 0.001
12:52 am 00:52 Cloudy with Light Snow 32 0 26 -3.3 79 79 WSW 13 20 30.04 1017 2 3.21868 0.001 0.001
1:26 am 01:26 Cloudy with Light Snow 31 -0.6 27 -2.8 85 85 WSW 8 13 30.06 1018 2 3.21868 0.01 0.254
1:52 am 01:52 Cloudy with Light Snow 31 -0.6 27 -2.8 85 85 WSW 9 15 30.02 1017 2 3.21868 0.01 0.254
2:11 am 02:11 Cloudy with Light Snow 31 -0.6 27 -2.8 85 85 WSW 9 15 30.05 1018 2 3.21868 0.001 0.001
2:52 am 02:52 Cloudy with Light Snow 31 -0.6 28 -2.2 89 89 W 13 20 30.01 1016 2 3.21868 0.001 0.001
3:52 am 03:52 Cloudy with Mist and Fog 31 -0.6 28 -2.2 89 89 WSW 9 15 29.99 1016 5 8.0467 0.001 0.001
4:27 am 04:27 Cloudy with Light Snow 31 -0.6 28 -2.2 89 89 W 9 15 30.03 1017 2 3.21868 0.001 0.001
4:32 am 04:32 Cloudy with Light Snow 31 -0.6 28 -2.2 89 89 W 12 19 30.03 1017 2 3.21868 0.001 0.001
4:41 am 04:41 Cloudy with Light Snow 31 -0.6 28 -2.2 89 89 WNW 15 24 30.04 1017 5 8.0467 0.01 0.254
4:52 am 04:52 Cloudy 31 -0.6 26 -3.3 82 82 NW 10 17 30.01 1016 9 14.48406 0.01 0.254
5:13 am 05:13 Partly Cloudy 29 -1.7 24 -4.4 82 82 WNW 9 15 30.04 1017 9 14.48406 0 0
5:52 am 05:52 Mostly Clear 27 -2.8 20 -6.7 75 75 NW 9 15 30.01 1016 10 16.0934 0 0
6:52 am 06:52 Mostly Clear 26 -3.3 20 -6.7 78 78 NW 7 11 30.02 1017 9 14.48406 0 0
7:52 am 07:52 Mostly Sunny 25 -3.9 19 -7.2 78 78 WNW 7 11 30.03 1017 8 12.87472 0 0
8:52 am 08:52 Mostly Sunny 28 -2.2 20 -6.7 72 72 WNW 8 13 30.04 1017 9 14.48406 0 0
9:52 am 09:52 Mostly Cloudy 30 -1.1 20 -6.7 66 66 WNW 12 19 30.04 1017 10 16.0934 0 0
10:52 am 10:52 Cloudy 30 -1.1 18 -7.8 61 61 W 14 22 30.05 1018 10 16.0934 0 0
11:52 am 11:52 Cloudy 33 0.6 18 -7.8 54 54 W 16 26 30.04 1017 10 16.0934 0 0
12:52 pm 12:52 Mostly Cloudy 35 1.7 19 -7.2 52 52 W 17 28 30.03 1017 10 16.0934 0 0
1:52 pm 13:52 Cloudy 35 1.7 20 -6.7 54 54 WNW 20 31 30.01 1016 10 16.0934 0 0
2:52 pm 14:52 Cloudy 36 2.2 20 -6.7 52 52 W 14 22 30 1016 10 16.0934 0 0
3:52 pm 15:52 Cloudy 35 1.7 20 -6.7 54 54 W 14 22 30 1016 10 16.0934 0 0
4:52 pm 16:52 Cloudy with Light Snow 34 1.1 22 -5.6 61 61 W 15 24 30.01 1016 9 14.48406 0.001 0.001
5:10 pm 17:10 Windy with Snow Likely 32 0 24 -4.4 73 73 W 20 31 30.06 1018 2.5 4.02335 0.001 0.001
5:19 pm 17:19 Cloudy with Light Snow 32 0 25 -3.9 75 75 W 18 30 30.06 1018 1.5 2.41401 0.001 0.001
5:52 pm 17:52 Cloudy with Light Snow 30 -1.1 26 -3.3 85 85 W 10 17 30.04 1017 1.5 2.41401 0.001 0.001
6:30 pm 18:30 Cloudy with Light Snow 30 -1.1 26 -3.3 85 85 W 13 20 30.08 1019 1.25 2.011675 0.001 0.001
6:52 pm 18:52 Cloudy with Light Snow 30 -1.1 26 -3.3 85 85 W 8 13 30.05 1018 1.5 2.41401 0.01 0.254
7:02 pm 19:02 Cloudy with Light Snow 29 -1.7 26 -3.3 89 89 WNW 9 15 30.08 1019 2 3.21868 0.001 0.001
7:52 pm 19:52 Cloudy with Light Snow 29 -1.7 26 -3.3 89 89 WNW 8 13 30.06 1018 2.5 4.02335 0.001 0.001
8:12 pm 20:12 Cloudy with Light Snow 29 -1.7 26 -3.3 89 89 NW 8 13 30.09 1019 2.5 4.02335 0.001 0.001
8:22 pm 20:22 Cloudy with Light Snow 29 -1.7 26 -3.3 89 89 WNW 7 11 30.09 1019 3 4.82802 0.001 0.001
8:52 pm 20:52 Cloudy with Light Snow 29 -1.7 26 -3.3 89 89 WNW 9 15 30.06 1018 4 6.43736 0.01 0.254
9:04 pm 21:04 Cloudy with Light Snow 29 -1.7 25 -3.9 85 85 NW 8 13 30.09 1019 5 8.0467 0.001 0.001
9:52 pm 21:52 Cloudy with Light Snow 29 -1.7 25 -3.9 85 85 NW 13 20 30.07 1018 5 8.0467 0.001 0.001
10:07 pm 22:07 Cloudy with Light Snow 29 -1.7 25 -3.9 85 85 NNW 12 19 30.11 1020 5 8.0467 0.001 0.001
10:52 pm 22:52 Cloudy with Light Snow 28 -2.2 22 -5.6 78 78 NNW 15 24 30.09 1019 7 11.26538 0.001 0.001
11:49 pm 23:49 Cloudy with Light Snow 27 -3 19 -7 74 74 NNW 16 26 30.14 1021 5 8.0467 0.001 0.001
11:52 pm 23:52 Cloudy with Light Snow 26 -3.3 19 -7.2 75 75 NNW 15 24 30.1 1019 5 8.0467 0.001 0.001

Powered by AerisWeather